SA27 CYXU-ZZZZ

Flight info

Callsign SA27
Flight time N/A
Altitude 3000
Route CYXU/15 VFR N
Aircraft L39/L-V/N

Departure

Time 2026-04-21 22:42
Airport London International Airport (CYXU)

Arrival

Time N/A
Airport ZZZZ
Time Latitude Longitude Altitude Speed Heading
2026-04-21 22:39 43.03129 -81.15386 906 ft 0 kts 44°
2026-04-21 22:39 43.03132 -81.15383 906 ft 8 kts 44°
2026-04-21 22:40 43.03231 -81.15236 906 ft 19 kts 55°
2026-04-21 22:40 43.03344 -81.15259 906 ft 23 kts 319°
2026-04-21 22:40 43.03465 -81.15405 906 ft 23 kts 319°
2026-04-21 22:40 43.03587 -81.15551 906 ft 23 kts 319°
2026-04-21 22:41 43.03710 -81.15697 905 ft 24 kts 319°
2026-04-21 22:41 43.03834 -81.15846 904 ft 24 kts 319°
2026-04-21 22:41 43.03955 -81.15992 905 ft 16 kts 325°
2026-04-21 22:41 43.04037 -81.16011 906 ft 6 kts
2026-04-21 22:42 43.04062 -81.16008 906 ft 19 kts
2026-04-21 22:42 43.04081 -81.15831 906 ft 37 kts 137°
2026-04-21 22:42 43.03622 -81.15266 932 ft 129 kts 141°
2026-04-21 22:42 43.02861 -81.14360 1610 ft 162 kts 136°
2026-04-21 22:43 43.02245 -81.12908 2696 ft 193 kts 110°
2026-04-21 22:43 43.02102 -81.10947 3847 ft 228 kts 86°
2026-04-21 22:43 43.02582 -81.08644 4611 ft 270 kts 62°
2026-04-21 22:43 43.03638 -81.06529 6169 ft 273 kts 51°
2026-04-21 22:44 43.04453 -81.04150 7661 ft 284 kts 73°
2026-04-21 22:44 43.05455 -81.01907 9187 ft 279 kts 37°
2026-04-21 22:44 43.07210 -81.00641 10039 ft 299 kts 12°
2026-04-21 22:44 43.09314 -81.00186 10457 ft 320 kts
2026-04-21 22:45 43.11633 -81.00018 10758 ft 347 kts 358°
2026-04-21 22:45 43.13978 -80.99952 9849 ft 261 kts 332°
2026-04-21 22:45 43.16044 -81.01256 11141 ft 315 kts 323°
2026-04-21 22:45 43.17768 -81.03360 12026 ft 339 kts 317°
2026-04-21 22:46 43.19382 -81.05160 12092 ft 261 kts 324°
2026-04-21 22:46 43.20883 -81.06918 11478 ft 305 kts 311°
2026-04-21 22:46 43.22764 -81.08384 11413 ft 323 kts 342°
2026-04-21 22:46 43.25040 -81.08597 11422 ft 332 kts 358°
2026-04-21 22:47 43.27363 -81.08502 11423 ft 335 kts 358°
2026-04-21 22:47 43.29702 -81.08293 11423 ft 340 kts
2026-04-21 22:47 43.32248 -81.08057 11422 ft 389 kts 354°
2026-04-21 22:47 43.34923 -81.09031 11409 ft 409 kts 333°
2026-04-21 22:48 43.37241 -81.11343 11406 ft 418 kts 314°
2026-04-21 22:48 43.38861 -81.14675 11413 ft 425 kts 295°
2026-04-21 22:48 43.39595 -81.18625 11408 ft 430 kts 279°
2026-04-21 22:48 43.39734 -81.22693 11411 ft 433 kts 272°
2026-04-21 22:49 43.39660 -81.26769 11412 ft 434 kts 270°
2026-04-21 22:49 43.39499 -81.30859 11411 ft 435 kts 269°
2026-04-21 22:49 43.39296 -81.35068 11413 ft 435 kts 269°
2026-04-21 22:49 43.39083 -81.39214 11409 ft 435 kts 269°
2026-04-21 22:50 43.38866 -81.43318 11409 ft 435 kts 269°
2026-04-21 22:50 43.38651 -81.47462 11407 ft 435 kts 269°
2026-04-21 22:50 43.38431 -81.51662 11405 ft 435 kts 269°
2026-04-21 22:50 43.38221 -81.55746 11405 ft 434 kts 269°
2026-04-21 22:51 43.38007 -81.59944 11400 ft 434 kts 269°
2026-04-21 22:51 43.37813 -81.63911 11403 ft 403 kts 269°
2026-04-21 22:51 43.37350 -81.67553 11391 ft 379 kts 255°
2026-04-21 22:51 43.35998 -81.70601 11390 ft 375 kts 232°
2026-04-21 22:52 43.33888 -81.72698 11392 ft 380 kts 210°
2026-04-21 22:52 43.31285 -81.73582 11399 ft 384 kts 189°
2026-04-21 22:52 43.28604 -81.73647 11395 ft 385 kts 182°
2026-04-21 22:52 43.25933 -81.73483 11394 ft 384 kts 180°
2026-04-21 22:53 43.23292 -81.73248 11372 ft 367 kts 179°
2026-04-21 22:53 43.20844 -81.72967 11242 ft 341 kts 175°
2026-04-21 22:53 43.18675 -81.71934 11214 ft 326 kts 149°
2026-04-21 22:53 43.17124 -81.69842 10993 ft 304 kts 120°
2026-04-21 22:54 43.16539 -81.67202 10651 ft 284 kts 88°
2026-04-21 22:54 43.16861 -81.64585 9813 ft 280 kts 63°
2026-04-21 22:54 43.17853 -81.62347 8853 ft 273 kts 45°
2026-04-21 22:54 43.19225 -81.60628 7864 ft 267 kts 30°
2026-04-21 22:55 43.20813 -81.59570 7342 ft 244 kts 11°
2026-04-21 22:55 43.22494 -81.59385 6276 ft 245 kts 349°
2026-04-21 22:55 43.24012 -81.60316 5253 ft 239 kts 316°
2026-04-21 22:55 43.25074 -81.62106 4113 ft 244 kts 302°
2026-04-21 22:56 43.25688 -81.63380 3571 ft 239 kts 302°
2026-04-21 22:56 43.26533 -81.65300 2764 ft 235 kts 299°
2026-04-21 22:56 43.27346 -81.67223 2341 ft 224 kts 299°
2026-04-21 22:56 43.28172 -81.69085 2426 ft 235 kts 301°
2026-04-21 22:57 43.29029 -81.71021 2551 ft 240 kts 299°
2026-04-21 22:57 43.28593 -81.72371 2319 ft 211 kts 169°
2026-04-21 22:57 43.27563 -81.71106 1947 ft 178 kts 133°
2026-04-21 22:57 43.27305 -81.69790 1686 ft 128 kts 65°
2026-04-21 22:58 43.28006 -81.69202 1212 ft 125 kts 352°
2026-04-21 22:58 43.28535 -81.70048 916 ft 130 kts 299°
2026-04-21 22:58 43.29037 -81.71148 1509 ft 129 kts 300°
2026-04-21 22:58 43.29715 -81.72011 3033 ft 183 kts 347°
2026-04-21 22:59 43.31245 -81.71381 3718 ft 266 kts 22°
2026-04-21 22:59 43.33036 -81.70253 3842 ft 277 kts 21°
2026-04-21 22:59 43.34725 -81.69167 4085 ft 258 kts 25°
2026-04-21 22:59 43.36010 -81.67570 4403 ft 250 kts 57°
2026-04-21 23:00 43.36455 -81.65286 4498 ft 251 kts 86°
2026-04-21 23:00 43.36452 -81.62873 4504 ft 254 kts 90°
2026-04-21 23:00 43.36426 -81.60438 4506 ft 255 kts 90°
2026-04-21 23:00 43.36383 -81.57999 4506 ft 256 kts 90°
2026-04-21 23:01 43.36336 -81.55555 4509 ft 256 kts 91°
2026-04-21 23:01 43.36241 -81.53110 4510 ft 256 kts 98°
2026-04-21 23:01 43.35543 -81.50950 4491 ft 246 kts 133°
2026-04-21 23:01 43.34134 -81.49798 4492 ft 233 kts 169°
2026-04-21 23:02 43.32554 -81.49597 4492 ft 225 kts 180°
2026-04-21 23:02 43.31045 -81.49072 4489 ft 226 kts 156°
2026-04-21 23:02 43.29690 -81.47980 4497 ft 225 kts 153°
2026-04-21 23:02 43.28287 -81.47045 4496 ft 226 kts 160°
2026-04-21 23:03 43.26813 -81.46214 4499 ft 233 kts 159°
2026-04-21 23:03 43.25303 -81.45342 4506 ft 238 kts 158°
2026-04-21 23:03 43.23894 -81.44118 4501 ft 245 kts 139°
2026-04-21 23:03 43.22751 -81.42367 4503 ft 248 kts 131°
2026-04-21 23:04 43.21674 -81.40500 4504 ft 251 kts 125°
2026-04-21 23:04 43.20747 -81.38457 4506 ft 253 kts 122°
2026-04-21 23:04 43.19843 -81.36381 4503 ft 254 kts 122°
2026-04-21 23:04 43.18834 -81.34440 4500 ft 249 kts 130°
2026-04-21 23:05 43.17746 -81.32653 4494 ft 240 kts 133°
2026-04-21 23:05 43.16563 -81.31091 4471 ft 233 kts 140°
2026-04-21 23:05 43.15376 -81.29601 4333 ft 229 kts 140°
2026-04-21 23:05 43.14219 -81.28143 4191 ft 224 kts 139°
2026-04-21 23:06 43.13078 -81.26714 4047 ft 221 kts 140°
2026-04-21 23:06 43.11958 -81.25299 3913 ft 218 kts 140°
2026-04-21 23:06 43.10847 -81.23903 3771 ft 216 kts 139°
2026-04-21 23:06 43.09738 -81.22521 3505 ft 214 kts 140°
2026-04-21 23:07 43.08638 -81.21159 3249 ft 213 kts 140°
2026-04-21 23:07 43.07543 -81.19802 2974 ft 212 kts 140°
2026-04-21 23:07 43.06453 -81.18464 2713 ft 209 kts 140°
2026-04-21 23:07 43.05362 -81.17125 2451 ft 213 kts 140°
2026-04-21 23:08 43.04268 -81.15786 2391 ft 209 kts 140°
2026-04-21 23:08 43.03413 -81.14241 2384 ft 196 kts 100°
2026-04-21 23:08 43.03796 -81.12855 2059 ft 141 kts 25°
2026-04-21 23:08 43.04664 -81.12943 1678 ft 124 kts 319°
2026-04-21 23:09 43.05197 -81.13993 1430 ft 149 kts 285°
2026-04-21 23:09 43.05140 -81.15249 1305 ft 120 kts 234°
2026-04-21 23:09 43.04552 -81.15942 1132 ft 112 kts 192°
2026-04-21 23:09 43.03934 -81.15630 905 ft 89 kts 140°
2026-04-21 23:10 43.03552 -81.15188 907 ft 60 kts 139°
2026-04-21 23:10 43.03398 -81.15035 907 ft 21 kts 186°
2026-04-21 23:10 43.03322 -81.15111 906 ft 4 kts 224°
2026-04-21 23:10 43.03321 -81.15113 906 ft 0 kts 224°
2026-04-21 23:11 43.03288 -81.15156 906 ft 16 kts 224°
2026-04-21 23:11 43.03209 -81.15282 906 ft 17 kts 224°
2026-04-21 23:11 43.03127 -81.15390 906 ft 16 kts 223°
2026-04-21 23:11 43.03055 -81.15490 906 ft 14 kts 227°
2026-04-21 23:12 43.02988 -81.15517 906 ft 9 kts 152°